Terminal Aerodrome Forecast
Issued by NWS Shreveport, LA

Home | Current Version | Previous Version | Text Only | Print | Product List | Glossary On
Versions: 1 2 3 4 5 6 7 8 9 10 11 12 13 14 15 16 17 18 19 20 21 22 23 24
000
FTUS44 KSHV 191738
TAFTXK
TAF
KTXK 191738Z 1918/2018 16010KT P6SM OVC005
      TEMPO 1920/1922 BKN015
     FM192200 15008KT P6SM SCT030 BKN250
     FM201000 14006KT P6SM BKN015 OVC025
     FM201400 17010KT 4SM SHRA BR OVC010=

USA.gov is the U.S. government's official web portal to all federal, state and local government web resources and services.